Location: ?????????
(41.3174°N, 22.5600°E)
Time: 23:51:40
(UTC+00:00)

Daily predictions for brighter satellites

Satellite Brightness Start Highest point End
(mag) Time Altitude Azimuth Time Altitude Azimuth Time Altitude Azimuth
Helios 1A Rocket 3.2 18:03:23 10° S 18:07:31 77° WSW 18:11:40 10° NNW
Sich 1 4.0 18:04:54 10° NNE 18:08:43 29° ENE 18:12:32 10° SE
FALCON 9 DEB 3.8 18:06:08 10° WNW 18:09:01 40° SW 18:11:54 10° SSE
OBJECT-B 0.8 18:09:14 10° SSE 18:12:25 63° ENE 18:15:39 10° N
Cosmos 1553 Rocket 4.0 18:07:56 10° S 18:14:02 74° E 18:20:16 10° N
Cosmos 1486 Rocket 4.0 18:11:12 10° SSW 18:16:31 83° ESE 18:21:53 10° NNE
SL-08 ROCKET BODY 4.3 18:11:50 10° N 18:17:44 74° E 18:23:32 10° SSE
CZ-4 R/B 4.2 18:16:03 10° SW 18:18:40 16° W 18:21:15 10° NW
Cosmos 1151 Rocket 4.2 18:20:12 10° SE 18:23:40 24° E 18:27:10 10° NE
Cosmos 1437 Rocket 2.8 18:22:10 10° S 18:26:01 88° W 18:30:00 10° N
Cosmos 2084 3.8 18:24:01 10° S 18:27:48 37° ESE 18:31:42 10° NE
Resurs 01 Rocket 2.6 18:24:41 11° SE 18:28:31 32° ENE 18:32:28 10° N
Cosmos 1417 Rocket 4.5 18:22:18 10° S 18:28:31 81° E 18:34:42 10° N
X-37B 1.3 18:26:13 10° WNW 18:29:21 51° NNE 18:32:26 10° E
Meteor 1-20 Rocket 4.5 18:24:13 10° N 18:29:40 50° ENE 18:34:59 10° SSE
Intercosmos 25 Rocket 3.7 18:26:04 10° N 18:31:48 81° E 18:35:30 10° S
Cosmos 1933 3.4 18:32:15 10° S 18:36:13 59° E 18:40:12 10° NNE
USA 290 2.4 18:33:11 10° NNW 18:36:23 55° ENE 18:38:49 16° SE
USA 186 3.3 18:34:42 10° SSW 18:36:53 25° W 18:38:59 10° NW
Cosmos 2278 Rocket 3.2 18:36:21 10° SSE 18:40:50 25° ESE 18:45:20 10° NE
IRIS 3.5 18:41:31 10° W 18:43:51 77° S 18:45:32 20° ESE
Cosmos 1844 Rocket 3.7 18:39:43 10° SW 18:45:07 51° WNW 18:50:34 10° NNE
BREEZE-M R/B 3.8 18:43:50 10° W 18:46:23 29° NNW 18:48:35 10° NE
Landsat 7 4.4 18:44:09 16° SE 18:47:37 41° ENE 18:52:04 10° N
Cosmos 1606 4.5 18:44:28 10° SW 18:47:54 33° WNW 18:51:23 10° N
Cosmos 1782 3.2 18:46:42 12° SSE 18:50:10 44° E 18:53:58 10° NNE
IGS 5A 3.9 18:48:04 17° SE 18:50:56 46° ENE 18:54:55 10° N
Cosmos 1602 4.1 18:48:17 10° N 18:52:01 46° E 18:54:22 20° SE
CZ-4C R/B 3.7 18:45:22 10° NNW 18:52:12 43° NE 18:58:35 15° ESE
GPS 2-04 Rocket1 3.7 18:49:16 10° SW 18:52:53 29° SSE 18:54:33 22° SE
Cosmos 1242 Rocket 2.5 18:50:45 10° S 18:54:20 88° W 18:57:54 10° N
Cosmos 1805 Rocket 4.1 18:53:23 10° NNW 18:57:40 59° W 19:01:56 10° S
Cosmos 1633 Rocket 3.2 18:59:36 10° N 19:03:57 56° E 19:06:32 23° SSE
ATLAS 5 CENTAUR R/B 2.4 18:59:43 10° NW 19:05:30 89° NE 19:10:13 21° SE
Meteor 1-25 Rocket 4.4 19:01:14 10° NNW 19:07:06 82° W 19:12:28 12° S
Cosmos 1777 Rocket 4.1 19:04:20 10° S 19:09:22 54° ESE 19:14:26 10° NNE
DELTA 2 R/B (1) 4.1 19:05:20 10° W 19:10:34 43° SSW 19:13:25 24° SE
Cosmos 1328 Rocket 3.5 19:07:42 16° S 19:11:06 64° E 19:15:29 10° NNE
Cosmos 1812 3.4 19:12:17 30° ESE 19:13:11 35° E 19:16:44 10° NNE
Ariane Rocket 3.9 19:11:06 10° S 19:15:55 45° W 19:20:47 10° NNW
Cosmos 1470 Rocket 4.1 19:11:52 10° N 19:16:10 43° ENE 19:17:51 30° SE
ARIANE 5 R/B 3.5 19:14:50 26° ESE 19:16:19 33° ENE 19:20:13 10° N
CRYOSAT 2 4.4 19:14:41 23° SSE 19:17:39 66° E 19:22:30 10° N
BREEZE-M DEB (TANK) 4.3 19:15:53 10° WSW 19:17:42 17° SSW 19:18:32 16° SSW
CARTOSAT-1 4.4 19:19:36 28° ESE 19:20:56 34° ENE 19:24:50 10° N
Cosmos 1833 Rocket 3.2 19:17:17 10° NNW 19:22:44 46° ENE 19:25:22 27° ESE
SL-4 R/B 4.3 19:20:32 10° W 19:23:34 18° SW 19:26:00 13° SSW
Cosmos 1666 3.8 19:22:12 10° NNE 19:25:25 27° ENE 19:25:37 27° E
Cosmos 1709 Rocket 4.0 19:20:50 10° N 19:26:57 81° W 19:31:34 18° S
Cosmos 1933 Rocket 4.1 19:26:19 10° N 19:30:24 39° ENE 19:31:16 35° ESE
BREEZE-M DEB (TANK) 4.2 19:27:33 10° WNW 19:32:01 88° SSW 19:38:55 21° ESE
Cosmos 1666 Rocket 4.1 19:27:58 10° NNW 19:32:16 55° W 19:34:59 21° SSW
Milstar 3 4.2 19:19:10 10° WSW 19:32:48 38° S 19:37:11 26° SE
Cosmos 1437 3.0 19:33:32 41° SW 19:34:13 56° W 19:37:01 10° N
Cosmos 2074 Rocket 4.5 19:29:01 10° N 19:35:02 45° ENE 19:37:31 31° SE
USA 307 4.4 19:33:40 10° NW 19:37:28 30° NNE 19:39:32 20° ENE
NOSS 3-3 (A) 4.5 19:33:04 10° SW 19:38:41 58° NW 19:45:05 10° NNE
CZ-2C R/B 3.9 19:34:15 10° N 19:38:44 71° WNW 19:42:31 15° SSW
NOSS 3-3 (C) 4.5 19:33:10 10° SW 19:38:48 58° NW 19:45:13 10° NNE
USA 245 3.9 19:43:46 28° NNW 19:43:46 28° NNW 19:45:00 10° NNW
SJ 16-02 1.3 19:42:36 46° SSE 19:43:40 61° ESE 19:48:03 10° NNE
ATLAS 2AS CENTAUR R/B 4.1 19:38:49 10° NNW 19:45:15 30° NE 19:49:39 16° E
SPOT 1/Viking Rocket 3.6 19:42:57 32° S 19:45:26 81° WSW 19:50:39 10° NNW
JB-3 4.1 19:41:54 10° NNE 19:45:45 66° E 19:46:07 61° SE
USA 308 4.1 19:47:12 10° NW 19:51:11 36° NNE 19:52:38 28° ENE
Iridium 4 Rocket 3.7 19:51:13 38° SSE 19:53:27 69° E 19:59:20 10° N
Terra 2.4 19:54:08 38° E 19:54:53 41° ENE 19:59:21 10° N
Cosmos 1500 3.6 19:51:43 10° NNW 19:55:23 54° W 19:56:07 45° SW
BREEZE M DEB (TANK) 3.4 19:56:34 10° NW 19:59:30 25° N 19:59:41 25° NNE
SPOT 5 3.0 19:59:20 49° SE 20:00:34 68° ENE 20:05:48 10° N
Cosmos 2082 Rocket 2.6 19:57:05 10° NNW 20:02:33 49° ENE 20:03:59 40° ESE
Resurs 01 Rocket 3.6 20:02:14 14° SW 20:05:01 23° W 20:08:36 10° NW
X-37B 2.3 20:02:55 10° WNW 20:04:43 27° W 20:04:43 27° W
Cosmos 158 Rocket 4.0 20:01:35 10° N 20:06:23 55° ENE 20:07:03 50° E
Cosmos 2228 Rocket 3.1 20:08:08 61° E 20:08:08 61° E 20:12:28 10° NNE
COSMOS 2406 3.2 20:03:16 10° NNW 20:08:56 77° WSW 20:10:34 48° S
Meteor 1-27 Rocket 3.8 20:16:22 53° SSE 20:17:32 66° E 20:23:24 10° NNE
Cosmos 1538 Rocket 4.1 20:12:16 10° NNW 20:17:37 71° WSW 20:18:46 53° SSW
Cosmos 1271 Rocket 3.0 20:19:15 63° W 20:19:26 64° W 20:23:26 10° N
Spot 2 Rocket 4.2 20:22:06 36° SW 20:23:33 47° W 20:28:24 10° NNW
Cosmos 2278 Rocket 3.1 20:19:09 10° SW 20:24:35 47° WNW 20:30:02 10° NNE
Cosmos 1937 Rocket 4.5 20:29:24 32° ENE 20:29:24 32° ENE 20:32:52 10° NE
BREEZE-M DEB (TANK) 4.4 20:27:22 10° NW 20:27:55 15° NNW 20:27:55 15° NNW
ERS-1 Rocket 3.2 20:30:20 53° SW 20:31:08 61° W 20:36:07 10° NNW
Cosmos 1943 Rocket 3.1 20:32:27 33° E 20:32:27 33° E 20:36:21 10° NE
USA 305 3.1 20:27:28 10° NW 20:31:23 67° N 20:31:23 67° N
Cosmos 2369 Rocket 4.1 20:35:25 16° ENE 20:35:25 16° ENE 20:37:18 10° NE
Cosmos 1680 Rocket 3.8 20:28:59 10° N 20:34:13 54° ENE 20:34:33 53° E
Cosmos 1869 Rocket 3.7 20:35:02 10° N 20:38:55 70° NNW 20:38:55 70° NNW
CZ-4C R/B 3.4 20:33:47 10° NW 20:41:06 54° WSW 20:43:46 40° SSW
Cosmos 1238 Rocket 4.3 20:40:35 10° N 20:46:19 41° ENE 20:46:24 41° ENE
Meteor 1-11 Rocket 4.0 20:40:53 10° NNW 20:46:49 66° W 20:47:53 55° SW
DNEPR-1 R/B 4.4 20:50:31 54° E 20:50:31 54° E 20:54:47 10° NE
ATLAS 5 CENTAUR R/B 4.4 20:46:01 10° WNW 20:49:47 17° WSW 20:51:47 15° SW
USA 306 3.7 20:46:47 10° NW 20:49:59 49° WNW 20:49:59 49° WNW
ARIANE 5 R/B 4.4 20:52:22 21° WSW 20:52:50 21° W 20:56:10 10° NW
Cosmos 1707 Rocket 4.2 20:55:53 51° NNE 20:55:53 51° NNE 20:59:14 10° N
SL-8 Rocket 4.3 20:50:16 10° N 20:56:25 51° ENE 20:56:54 49° E
Cosmos 1340 Rocket 3.8 20:52:33 10° N 20:55:28 45° N 20:55:28 45° N
Cosmos 1833 Rocket 4.2 21:01:48 10° NW 21:06:19 25° WSW 21:07:04 24° WSW
Cosmos 1898 Rocket 3.6 21:07:15 70° W 21:07:26 70° WNW 21:12:46 10° NNE
Cosmos 2154 Rocket 4.4 21:02:24 10° NNW 21:08:30 52° W 21:09:43 46° SW
Cosmos 923 Rocket 4.4 21:05:17 10° NNW 21:10:12 54° W 21:10:12 54° W
Cosmos 1536 4.4 21:07:46 10° NNW 21:10:33 32° WNW 21:10:33 32° WNW
Cosmos 1743 4.4 21:12:12 10° NNW 21:14:28 33° NNW 21:14:28 33° NNW
Cosmos 962 Rocket 4.4 21:16:27 10° NNW 21:22:33 70° W 21:22:54 68° WSW
SJ 16-02 4.1 21:20:22 10° W 21:22:40 14° WNW 21:24:58 10° NNW
NOSS 3-4 (A) 4.2 21:16:16 10° NW 21:23:13 53° WSW 21:24:06 50° SW
NOSS 3-4 (C) 4.2 21:16:22 10° NW 21:23:19 53° WSW 21:24:13 51° SW
Cosmos 2297 4.0 21:22:45 58° W 21:23:23 62° WNW 21:29:03 10° NNE
Cosmos 864 Rocket 4.5 21:17:44 10° N 21:23:52 64° E 21:23:53 64° E
Cosmos 1959 Rocket 4.4 21:20:25 10° N 21:26:38 70° E 21:26:41 70° E
Cosmos 1461 4.4 21:31:04 35° NE 21:31:04 35° NE 21:33:48 10° NNE
Cosmos 1733 Rocket 4.2 21:24:53 10° N 21:27:49 42° NNW 21:27:49 42° NNW
Terra 3.7 21:33:01 21° W 21:33:01 21° W 21:36:22 10° NW
Meteor 1-18 Rocket 4.2 21:33:59 76° NNE 21:33:59 76° NNE 21:39:08 10° N
ATLAS 2AS CENTAUR R/B 2.6 21:29:37 10° NW 21:36:50 70° WSW 21:37:04 69° SW
Cosmos 2181 Rocket 4.0 21:44:37 67° W 21:44:51 68° W 21:50:58 10° N
Cosmos 2082 Rocket 3.8 21:41:56 10° NW 21:45:50 23° W 21:45:50 23° W
Cosmos 44 4.4 21:48:06 10° NW 21:51:59 43° WNW 21:51:59 43° WNW
Cosmos 2366 rocket 4.0 21:49:54 10° NNW 21:55:56 69° W 21:55:56 69° W
Cosmos 1821 Rocket 4.4 21:50:25 10° N 21:56:41 54° ENE 21:56:46 54° E
ATLAS CENTAUR R/B 4.2 22:02:22 10° NE 22:02:22 10° NE 22:02:23 10° NE
Lacrosse 5 4.3 22:15:41 13° ENE 22:15:41 13° ENE 22:16:17 10° ENE
Cosmos 1943 Rocket 3.5 22:13:54 30° W 22:15:01 33° WNW 22:20:03 10° N
Cosmos 2369 Rocket 2.6 22:17:10 57° NW 22:17:10 57° NW 22:22:28 10° NNE
Gbstr 26 Del rocket 3.9 22:17:18 10° NW 22:23:48 76° NW 22:23:48 76° NW
Cosmos 1607 4.0 22:26:50 76° WNW 22:26:56 76° WNW 22:33:28 10° NNE
Gblst 52 Del rocket 4.4 22:22:46 10° NW 22:29:25 73° NNE 22:29:37 72° NE
Thor Agena Rocket 4.0 22:28:50 10° NNE 22:33:11 62° N 22:33:11 62° N
Cosmos 1656 Rocket 4.0 22:35:34 59° NNW 22:35:34 59° NNW 22:40:25 10° NNE
Nadezhda 3 Rocket 4.0 22:35:11 76° WNW 22:35:11 76° WNW 22:41:14 10° N
Cosmos 1066 Rocket 4.4 22:47:04 72° N 22:47:04 72° N 22:52:10 10° N
CZ-2D R/B 4.2 22:46:23 10° NE 22:49:26 15° E 22:49:28 15° E
BREEZE-M DEB (TANK) 4.4 22:50:55 10° WNW 22:58:40 49° WNW 22:58:40 49° WNW
Cosmos 1605 Rocket 4.2 22:56:07 10° N 23:02:18 61° E 23:02:44 59° E
Meteor 1-23 Rocket 4.3 23:03:13 77° N 23:03:13 77° N 23:08:38 10° N
Resurs 1-4 Rocket 3.9 22:59:46 10° NE 23:03:35 21° E 23:03:35 21° E
SeaSat 1 3.0 23:04:20 10° NNE 23:08:32 52° NNW 23:08:32 52° NNW
Cosmos 2297 Rocket 4.4 23:05:57 10° N 23:10:07 20° NE 23:14:14 10° E
USA 215 3.1 23:13:56 58° SE 23:15:23 86° NE 23:21:57 10° NW
ISS -0.7 23:18:16 15° N 23:18:16 15° N 23:20:16 10° NNE
Okean 2 Rocket 4.4 23:21:17 10° NNW 23:23:56 35° NNW 23:23:56 35° NNW
Cosmos 44 Rocket 3.9 23:27:22 10° NNW 23:31:24 54° NW 23:31:24 54° NW
CZ-4 R/B 4.2 23:29:25 10° NNE 23:33:29 63° N 23:33:29 63° N
ATLAS CENTAUR R/B 3.6 23:38:30 17° NNW 23:38:30 17° NNW 23:40:32 10° N
Helios 1B rocket 4.1 23:34:25 10° NNE 23:37:15 29° ENE 23:37:15 29° ENE
USA 281 3.4 23:36:59 42° SE 23:39:15 69° ENE 23:45:48 10° NNW
Cosmos 1726 3.9 23:41:16 10° N 23:43:27 31° NNE 23:43:27 31° NNE
Meteor 1-22 Rocket 4.3 23:39:07 10° NNW 23:45:07 74° W 23:45:14 74° WSW
Lacrosse 4 Rocket 4.0 23:52:14 12° ESE 23:52:15 12° ESE 23:54:06 10° E
Cosmos 371 Rocket 4.2 23:54:51 40° E 23:54:51 40° E 23:59:20 10° NE
Lacrosse 5 2.1 23:54:51 60° NW 23:54:55 60° NW 23:59:57 10° NE
